Temp
72 77 75 74 61 55 53 62 69 72 73 76 80 77 74 75 74 66 78 84 79 77 78 79 79 80 79 79 79 78 78 78 78 78 78 78 78 79 78 78 79 79 80 80 80 80 80 80 80
73 80 75 67 53 47 54 69 68 71 77 77 78 80 78 74 83 78 78 82 80 77 77 78 79 79 79 79 78 78 78 78 78 78 78 78 78 78 78 78 79 79 80 80 80 80 80 80 80
78 79 66 58 50 49 56 68 68 74 79 80 77 82 80 77 84 81 82 82 79 76 77 78 79 79 79 79 78 78 78 78 78 78 78 78 78 78 78 78 79 80 80 80 80 80 79 79 79
75 70 65 54 51 59 65 70 72 77 79 79 79 76 83 87 85 83 84 82 79 77 78 79 79 79 79 79 79 78 78 78 78 78 78 78 78 77 77 78 78 79 80 80 80 79 78 78 78
72 63 53 47 53 61 69 73 75 76 74 77 77 74 76 85 86 85 83 83 79 77 77 78 79 79 79 79 79 78 78 78 78 78 78 78 77 77 77 77 78 79 79 79 79 78 78 77 78
62 61 48 45 54 67 70 72 75 79 79 78 77 75 74 84 86 82 84 82 82 78 77 77 79 78 78 79 78 78 78 78 78 78 78 77 77 77 77 77 78 78 78 79 78 78 77 77 77
59 54 49 52 57 63 70 74 72 77 79 81 84 73 75 79 82 86 84 82 82 80 77 76 77 78 78 78 78 77 77 77 77 77 77 77 77 77 77 77 77 77 77 77 77 77 77 76 76
63 56 53 53 56 58 72 73 75 76 79 88 87 74 72 81 86 86 83 82 81 77 77 75 76 79 79 77 77 77 77 77 76 76 76 76 77 76 77 75 76 77 77 77 77 77 76 76 76
68 51 50 54 58 62 72 68 77 81 78 84 87 83 86 87 86 84 78 80 77 78 74 74 75 78 79 79 77 77 78 77 77 77 76 75 73 73 75 75 76 77 77 77 76 76 76 76 76
57 49 53 62 65 64 69 70 72 74 76 76 80 84 85 83 82 80 76 75 76 74 74 72 76 77 78 80 79 77 77 76 75 75 75 73 71 71 74 75 76 77 77 77 76 76 76 76 69
58 55 61 66 68 72 71 73 75 72 69 73 76 81 80 78 77 77 76 78 77 75 77 75 74 75 75 77 78 77 77 76 74 74 73 72 72 71 72 69 72 70 75 70 73 71 70 69 68
54 63 66 68 71 71 70 75 73 75 75 79 83 82 79 78 76 77 77 75 75 73 77 77 76 74 75 74 76 76 75 73 72 73 72 71 71 69 68 69 68 68 68 68 68 67 68 68 69
54 61 67 70 71 71 74 71 72 74 79 82 81 81 78 75 79 77 78 78 75 74 75 78 78 77 75 73 74 73 73 73 73 71 71 71 70 70 69 69 68 68 67 67 66 67 68 68 69
61 62 63 66 66 66 68 71 68 73 79 79 79 77 79 77 77 75 76 75 76 76 75 79 79 77 77 75 74 75 75 75 73 73 73 71 71 70 69 68 68 68 68 68 69 68 68 69 69
63 56 60 61 61 64 65 62 67 73 77 75 76 76 78 76 77 76 78 75 76 74 76 74 78 77 76 76 75 75 76 76 75 75 73 73 71 69 69 69 69 70 70 70 69 70 69 68 70
55 52 44 55 61 65 63 55 66 70 71 71 72 75 75 76 76 76 76 74 73 73 72 75 81 79 78 78 78 78 75 76 76 76 75 75 74 72 71 73 73 71 71 70 70 70 69 69 68
46 41 46 52 61 61 59 58 66 70 69 68 68 69 72 71 73 72 76 74 72 71 71 73 75 75 75 78 79 80 78 78 78 77 77 76 76 74 73 72 71 71 71 71 71 69 69 70 67
41 43 49 49 61 58 56 57 65 70 67 68 66 66 68 70 70 73 73 71 70 69 69 70 71 73 73 73 72 72 73 78 80 79 78 77 76 76 75 73 71 71 70 71 70 68 70 68 68
52 50 49 56 61 56 54 55 59 66 65 63 61 63 65 68 70 70 68 68 68 67 67 68 68 69 70 70 69 68 69 70 71 76 78 77 77 76 75 75 71 70 70 70 70 68 68 68 67
54 51 50 56 61 57 55 54 58 61 61 62 62 63 63 62 66 66 65 66 66 66 66 65 67 68 68 70 70 69 68 69 72 71 74 74 75 77 77 76 73 71 70 69 69 67 66 66 68
55 50 50 50 57 57 52 50 53 60 63 64 64 63 64 64 64 63 66 65 64 64 65 66 65 66 68 69 68 68 68 68 68 68 69 73 75 75 76 76 74 71 73 72 69 68 67 66 67
47 58 57 55 48 39 53 35 46 54 57 60 62 62 62 63 64 65 67 62 66 66 64 64 64 65 66 66 66 65 65 65 66 66 68 68 73 74 73 73 74 74 73 72 70 70 69 67 65
53 60 55 53 44 39 43 37 44 52 54 56 61 62 63 65 68 64 65 67 62 64 62 63 63 64 64 65 64 65 65 65 65 67 68 67 68 72 73 72 72 73 72 73 71 70 70 70 67
61 56 49 45 41 33 41 41 45 47 51 55 62 66 66 63 62 62 62 62 61 61 62 62 62 62 62 63 63 63 63 63 64 65 65 66 66 66 68 71 70 70 72 71 72 70 69 69 70
51 43 32 31 28 33 45 41 45 52 58 61 62 65 66 62 62 61 64 64 62 61 61 61 61 61 61 62 61 62 63 63 63 63 64 64 64 65 67 67 69 70 71 72 71 69 69 70 67
45 43 32 25 24 34 46 35 46 56 59 63 61 61 60 57 62 63 64 64 64 62 60 61 60 60 61 61 62 62 61 61 61 62 62 64 63 64 67 68 68 69 69 70 69 68 69 65 64
44 35 48 35 37 30 35 43 53 59 61 60 59 60 56 55 60 62 62 63 62 62 60 61 59 61 62 62 61 60 61 60 60 61 60 62 62 66 66 66 66 67 69 67 65 66 68 68 68
47 45 34 33 25 24 31 35 38 49 53 60 58 59 60 61 58 58 59 59 60 61 60 60 63 63 62 61 61 62 61 61 61 60 61 61 62 62 64 65 66 67 68 68 65 65 68 67 69
42 40 36 35 33 26 26 31 46 46 51 53 57 59 54 58 61 61 59 59 60 60 59 60 60 61 60 60 61 60 60 61 61 60 61 61 62 63 64 65 65 66 66 67 66 66 67 66 68
48 41 37 29 26 33 29 31 50 47 51 56 57 58 59 60 58 55 57 59 61 58 62 62 60 61 61 61 60 60 60 60 59 60 61 62 62 63 64 65 66 67 68 67 68 68 70 68 68
MSLP
1010.63 1010.00 1010.00 1010.40 1011.37 1011.49 1010.34 1008.35 1007.42 1006.41 1004.96 1004.06 1003.35 1003.17 1003.40 1003.45 1003.73 1005.16 1004.74 1005.29 1005.89 1007.12 1007.54 1008.07 1008.88 1009.06 1009.03 1009.09 1009.53 1009.93 1010.57 1011.11 1011.56 1011.89 1012.21 1012.65 1013.08 1013.45 1013.71 1014.07 1014.23 1014.25 1014.37 1014.53 1014.69 1014.78 1014.81 1014.87 1014.94
1010.66 1010.05 1010.11 1010.98 1011.72 1011.49 1009.79 1008.10 1007.38 1006.22 1004.87 1004.05 1003.64 1003.61 1003.55 1004.14 1003.80 1004.57 1005.08 1005.93 1006.05 1006.75 1007.44 1007.69 1008.74 1009.24 1009.34 1009.44 1009.69 1009.94 1010.28 1010.93 1011.47 1011.91 1012.28 1012.66 1013.03 1013.42 1013.84 1014.06 1014.36 1014.35 1014.38 1014.55 1014.71 1014.81 1014.87 1014.97 1015.08
1010.70 1010.39 1011.09 1011.58 1011.77 1010.98 1009.31 1007.59 1006.59 1005.64 1004.47 1004.19 1003.89 1003.58 1003.98 1004.17 1004.29 1004.52 1004.71 1005.71 1006.57 1007.38 1007.52 1007.74 1008.23 1008.98 1009.49 1009.85 1010.03 1010.57 1010.68 1010.80 1011.30 1011.87 1012.23 1012.75 1013.17 1013.48 1013.79 1014.02 1014.05 1014.26 1014.49 1014.72 1014.87 1014.97 1015.05 1015.04 1015.07
1010.85 1010.94 1011.59 1011.70 1011.72 1009.66 1008.44 1007.02 1006.47 1005.46 1004.40 1004.00 1004.10 1004.30 1004.41 1004.07 1004.28 1004.52 1005.37 1005.77 1006.57 1007.34 1007.81 1007.77 1008.38 1008.95 1009.43 1009.76 1010.21 1010.60 1011.12 1011.31 1011.51 1011.96 1012.38 1012.64 1013.14 1013.57 1013.83 1014.05 1014.08 1014.29 1014.38 1014.54 1014.72 1014.90 1014.99 1015.11 1015.25
1011.02 1011.61 1012.29 1012.20 1011.29 1009.19 1008.07 1006.91 1006.59 1005.45 1004.67 1004.17 1004.38 1004.85 1004.53 1004.65 1004.36 1004.85 1005.54 1005.89 1005.77 1007.12 1007.70 1007.93 1008.50 1009.12 1009.62 1009.95 1010.16 1010.49 1011.17 1011.67 1011.96 1012.09 1012.49 1012.72 1013.02 1013.52 1013.79 1014.03 1014.38 1014.41 1014.52 1014.52 1014.64 1014.89 1015.21 1015.23 1015.38
1011.54 1012.17 1012.64 1012.56 1011.19 1008.64 1007.50 1006.71 1006.34 1005.15 1004.17 1003.93 1004.69 1004.76 1004.90 1004.71 1004.56 1005.31 1005.21 1005.86 1005.96 1006.34 1007.30 1007.85 1008.36 1009.19 1009.78 1010.21 1010.43 1010.72 1011.10 1011.74 1012.11 1012.46 1012.69 1013.06 1013.23 1013.53 1013.92 1014.15 1014.36 1014.44 1014.62 1014.66 1014.62 1014.86 1015.15 1015.34 1015.54
1011.99 1012.55 1012.40 1011.95 1011.00 1009.03 1007.07 1006.41 1006.17 1005.15 1004.04 1003.17 1003.71 1004.65 1004.96 1004.76 1004.51 1004.50 1005.30 1005.92 1006.34 1007.11 1007.34 1007.68 1008.26 1008.88 1009.67 1010.29 1010.70 1010.93 1011.15 1011.62 1012.26 1012.57 1012.91 1013.20 1013.46 1013.78 1014.01 1014.30 1014.49 1014.55 1014.48 1014.65 1014.80 1014.96 1015.11 1015.22 1015.38
1011.69 1012.18 1011.95 1011.39 1010.60 1008.82 1006.66 1006.68 1005.92 1005.46 1003.98 1002.95 1003.00 1004.15 1004.76 1004.51 1004.11 1004.11 1004.59 1005.52 1006.46 1006.90 1007.73 1008.17 1008.13 1008.70 1009.55 1010.18 1010.63 1011.06 1011.07 1011.39 1011.92 1012.56 1012.90 1013.26 1013.58 1013.78 1014.20 1014.51 1014.55 1014.53 1014.51 1014.65 1014.83 1014.96 1014.91 1015.01 1015.17
1010.95 1011.55 1011.14 1010.47 1009.78 1008.64 1006.81 1006.80 1005.72 1005.32 1004.84 1003.76 1002.98 1003.14 1003.40 1003.70 1003.88 1004.15 1004.68 1006.04 1007.10 1007.73 1008.19 1008.84 1008.67 1008.77 1009.28 1009.87 1010.39 1010.82 1011.07 1011.11 1011.61 1012.13 1012.64 1013.14 1013.51 1013.66 1013.83 1014.11 1014.24 1014.33 1014.26 1014.37 1014.52 1014.78 1014.86 1014.86 1015.10
1010.74 1010.78 1010.26 1009.53 1009.06 1008.31 1007.05 1006.69 1006.08 1005.52 1004.55 1004.16 1003.47 1003.38 1003.89 1004.08 1004.04 1004.56 1005.28 1006.13 1006.74 1007.40 1007.90 1008.69 1009.15 1009.22 1009.34 1010.04 1010.46 1010.77 1010.91 1011.27 1011.46 1011.86 1012.23 1012.80 1013.19 1013.42 1013.56 1013.77 1013.91 1013.98 1014.05 1014.09 1014.27 1014.50 1014.75 1014.92 1015.03
1010.05 1009.72 1009.62 1008.82 1008.30 1007.72 1006.80 1005.53 1006.18 1005.65 1005.01 1004.27 1003.45 1003.92 1004.39 1004.71 1005.00 1004.87 1005.38 1005.72 1006.12 1006.19 1007.18 1007.97 1008.65 1009.33 1009.82 1009.53 1010.26 1010.65 1010.85 1011.19 1011.60 1011.65 1011.90 1012.45 1012.89 1013.15 1013.18 1013.46 1013.51 1013.63 1013.83 1014.00 1014.09 1014.40 1014.66 1014.93 1015.12
1009.77 1009.24 1008.97 1008.31 1007.69 1007.22 1006.40 1005.87 1005.46 1005.34 1004.62 1004.05 1003.15 1003.55 1004.23 1004.44 1004.73 1004.86 1005.38 1005.78 1006.08 1006.33 1006.60 1007.15 1008.09 1008.88 1009.52 1009.76 1009.83 1010.31 1010.77 1010.94 1011.39 1011.90 1011.92 1012.17 1012.50 1012.87 1013.13 1013.36 1013.45 1013.56 1013.60 1013.81 1014.15 1014.45 1014.48 1014.66 1014.71
1009.39 1008.91 1008.18 1007.51 1006.91 1006.50 1006.17 1005.27 1005.18 1004.81 1004.27 1003.70 1003.56 1003.39 1004.05 1004.03 1004.17 1004.52 1004.86 1005.61 1005.85 1006.04 1006.25 1006.71 1007.10 1008.14 1009.00 1009.52 1009.48 1009.84 1010.26 1010.49 1010.85 1011.45 1011.94 1011.93 1012.29 1012.52 1012.63 1012.81 1013.02 1013.23 1013.55 1013.88 1014.14 1014.36 1014.32 1014.32 1014.28
1008.68 1008.35 1007.87 1007.13 1006.63 1006.19 1005.91 1004.94 1004.75 1004.03 1003.81 1003.59 1003.44 1003.50 1003.71 1003.95 1004.10 1004.11 1004.47 1005.28 1005.72 1005.78 1005.97 1006.17 1006.37 1007.06 1008.35 1009.05 1009.22 1008.96 1009.46 1009.82 1010.40 1010.83 1011.37 1011.74 1011.83 1012.24 1012.59 1012.72 1012.92 1012.90 1013.30 1013.61 1013.73 1013.86 1014.09 1014.15 1014.01
1008.73 1008.45 1007.53 1006.85 1006.35 1005.89 1005.48 1004.95 1003.68 1003.74 1003.53 1003.64 1003.66 1003.67 1003.45 1003.48 1003.83 1004.18 1004.30 1004.70 1004.81 1005.31 1005.52 1006.10 1006.26 1006.46 1007.39 1008.14 1008.87 1008.85 1008.84 1009.26 1009.86 1010.15 1010.76 1011.23 1011.73 1012.02 1012.16 1012.41 1012.63 1012.45 1012.85 1013.16 1013.44 1013.46 1013.48 1013.80 1013.84
1009.22 1008.87 1008.31 1007.10 1006.40 1005.77 1005.73 1004.39 1003.91 1003.57 1003.57 1003.55 1003.74 1003.82 1003.71 1003.65 1003.84 1003.97 1004.09 1004.21 1004.42 1004.96 1005.15 1005.42 1006.07 1006.88 1006.86 1007.32 1007.69 1008.23 1008.48 1008.69 1008.99 1009.56 1010.15 1010.52 1010.83 1011.38 1011.92 1012.01 1012.07 1012.08 1012.35 1012.70 1013.07 1013.24 1013.37 1013.50 1013.70
1010.00 1009.73 1008.80 1007.53 1006.31 1006.17 1005.84 1004.32 1003.85 1003.51 1003.56 1003.35 1003.58 1003.78 1003.80 1003.72 1003.75 1003.56 1003.64 1003.89 1004.02 1004.64 1005.05 1005.53 1005.75 1006.37 1007.00 1007.19 1007.09 1007.15 1007.33 1007.97 1007.95 1008.41 1009.16 1009.76 1010.17 1010.80 1011.33 1011.91 1011.49 1011.86 1012.19 1012.62 1012.82 1012.88 1013.21 1013.32 1013.45
1010.41 1009.73 1008.73 1007.75 1006.17 1006.24 1005.85 1004.69 1004.17 1003.76 1003.51 1003.13 1003.25 1003.40 1003.64 1003.61 1003.40 1003.19 1003.45 1003.86 1004.09 1004.68 1005.07 1005.28 1005.57 1006.05 1006.70 1007.34 1007.49 1007.64 1007.55 1007.34 1007.57 1007.80 1007.94 1008.72 1009.61 1010.02 1010.33 1011.35 1011.30 1011.59 1011.61 1012.22 1012.51 1012.65 1012.86 1012.94 1013.08
1009.62 1009.28 1008.52 1007.28 1006.53 1006.20 1005.87 1005.12 1004.49 1003.27 1003.01 1003.05 1003.14 1003.59 1003.53 1003.14 1003.03 1003.07 1003.59 1003.99 1004.53 1005.08 1005.31 1005.58 1006.01 1006.32 1006.39 1007.20 1007.52 1007.80 1007.83 1007.73 1007.74 1007.85 1007.94 1007.74 1008.43 1009.22 1009.86 1010.95 1011.07 1011.36 1011.59 1011.64 1012.38 1012.40 1012.85 1013.08 1013.04
1008.72 1008.36 1007.68 1006.90 1006.30 1005.95 1005.59 1004.95 1004.25 1003.52 1002.85 1002.65 1002.87 1003.11 1003.24 1003.56 1003.45 1003.77 1003.81 1004.38 1004.62 1005.00 1005.59 1005.86 1006.10 1006.36 1006.44 1006.73 1007.30 1007.40 1007.55 1007.65 1007.72 1007.99 1008.14 1007.36 1008.38 1008.80 1009.88 1009.73 1010.47 1010.95 1011.64 1011.26 1012.13 1012.44 1012.76 1012.99 1012.95
1007.41 1007.46 1007.11 1006.62 1006.13 1005.71 1005.79 1005.22 1004.38 1003.67 1003.19 1002.62 1002.50 1002.52 1002.80 1003.14 1003.77 1004.22 1004.12 1004.08 1004.41 1004.85 1005.05 1005.57 1005.93 1006.17 1006.47 1006.72 1007.07 1007.41 1007.59 1008.02 1008.12 1008.08 1008.11 1007.86 1006.80 1008.02 1008.89 1009.46 1010.13 1009.67 1010.86 1011.06 1011.22 1011.98 1012.55 1012.80 1012.70
1006.56 1006.18 1006.15 1006.29 1006.60 1006.80 1006.10 1006.13 1005.06 1004.23 1003.76 1003.19 1002.76 1002.65 1002.65 1002.80 1002.97 1003.58 1003.78 1004.06 1004.12 1004.30 1004.58 1005.10 1005.64 1005.96 1006.14 1006.57 1007.18 1007.81 1007.79 1008.14 1008.28 1008.37 1008.09 1007.85 1008.01 1008.12 1007.92 1009.16 1009.21 1008.85 1010.60 1010.59 1010.77 1011.28 1012.04 1012.17 1012.20
1006.40 1006.09 1006.18 1006.63 1007.14 1007.36 1007.10 1007.01 1005.02 1004.48 1003.92 1003.42 1002.89 1002.37 1002.08 1002.20 1002.15 1002.47 1003.21 1003.20 1003.77 1004.13 1004.45 1004.83 1005.34 1005.79 1006.03 1006.40 1006.91 1007.51 1007.92 1008.03 1007.99 1008.10 1007.85 1008.04 1007.96 1007.31 1006.71 1008.32 1009.37 1009.28 1009.15 1009.56 1010.04 1010.97 1011.22 1011.71 1011.88
1006.45 1006.52 1006.79 1007.26 1007.86 1008.07 1007.41 1007.14 1004.70 1004.46 1003.45 1002.98 1002.21 1001.75 1001.40 1001.26 1001.49 1001.73 1002.17 1003.24 1003.96 1004.39 1004.68 1004.97 1005.32 1005.75 1006.10 1006.58 1006.86 1007.28 1007.69 1007.95 1008.16 1008.05 1008.23 1008.29 1008.15 1008.03 1007.83 1007.75 1008.02 1007.60 1008.07 1009.08 1009.77 1009.94 1010.19 1010.58 1010.29
1007.37 1007.88 1008.55 1008.96 1009.17 1008.10 1007.65 1007.30 1004.87 1003.14 1002.81 1002.29 1001.62 1000.41 1000.03 1000.32 1000.82 1001.36 1001.96 1003.04 1003.74 1004.28 1004.64 1004.85 1005.22 1005.87 1006.20 1006.57 1007.01 1007.28 1007.44 1007.65 1007.82 1007.73 1007.71 1008.20 1008.30 1007.92 1008.05 1008.57 1008.00 1007.80 1007.03 1008.14 1009.17 1009.82 1010.22 1009.90 1009.68
1009.05 1009.34 1010.77 1010.82 1010.37 1009.23 1008.08 1006.71 1003.55 1002.90 1002.48 1001.87 1001.11 999.40 999.39 1000.35 1000.54 1001.03 1001.77 1002.50 1003.21 1003.73 1004.28 1004.72 1005.30 1005.74 1006.00 1006.35 1006.65 1006.88 1007.08 1007.39 1007.40 1007.55 1007.76 1007.97 1008.07 1007.86 1007.80 1007.97 1007.94 1007.83 1007.67 1007.99 1008.84 1008.75 1009.31 1009.89 1009.34
1009.84 1010.14 1009.06 1011.13 1011.15 1010.82 1008.41 1006.18 1004.18 1002.52 1001.97 1001.68 1001.78 1001.18 1000.78 1000.89 1001.27 1001.36 1001.77 1002.15 1002.82 1003.46 1004.04 1004.53 1005.24 1005.54 1005.63 1005.76 1006.25 1006.68 1006.75 1007.16 1007.45 1007.46 1007.61 1007.87 1008.02 1007.65 1007.80 1007.74 1007.75 1007.28 1007.54 1007.68 1007.96 1008.19 1008.32 1008.77 1007.92
1009.82 1011.89 1010.91 1011.45 1011.69 1010.94 1008.72 1007.15 1005.28 1003.65 1002.48 1001.35 1002.54 1002.16 1002.51 1002.89 1002.55 1002.33 1002.46 1002.74 1002.88 1003.15 1003.54 1003.97 1004.32 1004.86 1005.04 1005.42 1005.77 1006.06 1006.30 1006.51 1006.65 1006.85 1007.23 1007.34 1007.32 1007.49 1007.62 1007.36 1007.57 1007.13 1007.54 1007.97 1007.91 1007.93 1007.46 1007.70 1006.62
1010.14 1011.07 1011.29 1011.30 1011.66 1010.84 1009.50 1007.01 1004.81 1004.52 1003.19 1003.02 1002.82 1002.93 1003.50 1003.84 1004.03 1003.70 1003.56 1002.92 1002.33 1002.57 1003.10 1003.46 1003.91 1004.24 1004.58 1004.87 1005.16 1005.55 1005.91 1006.07 1006.26 1006.55 1006.57 1006.65 1006.68 1006.70 1006.78 1006.77 1006.72 1006.72 1006.85 1007.10 1007.08 1006.73 1006.55 1006.29 1006.16
1009.86 1010.98 1012.10 1011.85 1012.05 1011.28 1009.94 1007.60 1005.07 1004.90 1004.31 1003.62 1003.49 1003.59 1003.56 1003.72 1004.09 1004.33 1004.43 1003.96 1003.32 1003.51 1002.90 1003.17 1003.34 1003.68 1003.86 1004.19 1004.73 1005.12 1005.53 1005.70 1006.00 1006.20 1005.84 1005.70 1005.92 1005.69 1005.66 1005.70 1005.73 1005.86 1005.86 1005.77 1006.01 1005.75 1005.74 1005.83 1005.88
Wind_Speed
7 8 0 4 3 5 5 6 1 9 10 4 6 6 6 2 5 6 2 12 20 15 15 15 16 17 19 21 20 20 19 18 18 17 17 16 16 15 15 13 13 13 14 12 11 9 9 8 7
5 6 4 2 4 2 6 2 7 7 7 1 3 8 9 4 4 6 5 10 17 18 14 16 17 17 18 20 20 21 21 20 19 18 17 17 16 15 14 13 12 12 13 12 10 9 8 7 5
6 2 3 4 3 6 4 2 5 6 9 8 4 5 3 3 5 6 8 16 16 13 13 16 20 19 18 19 20 18 19 20 20 18 18 16 15 14 14 13 13 12 12 11 9 8 6 6 4
4 5 4 3 8 10 4 7 5 10 8 5 4 5 4 6 1 8 15 18 15 13 11 19 19 18 19 20 20 20 17 18 19 18 17 17 15 13 12 12 12 11 12 11 10 8 6 4 2
3 3 1 2 8 9 6 4 6 7 4 5 2 1 4 5 7 15 14 15 20 15 11 15 19 17 18 19 20 20 18 17 17 17 17 16 15 13 12 11 10 10 9 10 9 7 5 4 1
3 2 2 4 8 14 6 3 6 8 6 2 8 4 1 4 8 9 15 14 15 18 15 15 20 18 16 17 18 19 19 16 16 15 15 14 13 12 11 10 9 9 8 8 8 7 6 3 1
5 3 6 6 7 15 15 3 4 8 8 8 10 6 3 2 3 8 12 11 15 13 14 14 15 16 17 16 17 18 19 18 14 14 13 12 12 10 10 9 8 7 8 8 7 6 6 5 5
3 5 5 6 9 16 22 4 6 9 9 2 2 7 6 5 6 8 9 16 12 12 12 12 14 14 14 12 18 17 19 19 18 14 13 12 11 11 9 8 8 8 7 8 7 6 7 6 6
3 1 9 9 10 11 20 5 9 6 4 7 5 5 9 9 5 8 10 14 10 9 6 6 12 14 15 13 13 17 19 20 19 17 15 11 5 6 9 9 10 9 9 10 8 8 8 7 6
6 5 7 5 6 8 15 6 7 8 16 5 3 7 6 2 5 9 10 12 12 11 10 7 9 13 15 11 12 11 11 9 10 10 12 7 7 6 8 9 12 12 12 11 10 9 9 7 3
6 10 4 8 10 15 19 24 5 6 10 10 5 6 4 4 6 9 6 15 15 16 12 13 11 11 10 12 9 6 6 6 6 10 10 8 7 6 5 4 5 4 10 4 6 5 3 5 3
7 7 13 14 15 17 16 15 13 6 10 10 11 10 9 8 4 6 9 8 9 9 14 17 14 12 10 7 10 10 7 6 5 5 8 7 5 6 5 4 5 5 4 5 4 3 4 5 6
5 7 12 16 17 19 18 22 17 15 9 11 9 6 8 9 10 3 7 8 6 8 12 17 18 15 9 11 10 10 9 8 7 5 6 6 6 7 6 5 4 4 3 3 3 4 5 5 6
5 5 9 10 12 9 15 20 5 8 7 5 7 7 7 9 9 5 4 4 8 8 11 15 18 17 12 10 11 11 10 10 8 7 8 7 6 5 5 4 5 4 4 4 4 5 5 6 5
6 7 9 5 5 6 3 9 19 7 6 7 7 6 8 7 8 9 9 9 9 6 8 9 14 17 15 14 9 7 9 9 8 9 9 10 6 6 6 5 5 5 5 6 4 5 4 5 4
5 4 4 6 3 6 5 16 12 5 6 10 9 8 8 10 10 9 10 8 9 8 9 9 11 12 14 15 13 9 8 9 9 8 8 12 12 9 7 6 6 5 4 4 4 4 4 5 3
6 5 8 10 6 4 5 17 8 10 8 10 8 8 9 9 9 9 8 9 10 9 9 8 8 9 8 10 10 12 15 11 11 11 10 12 12 10 7 6 5 6 4 4 4 4 3 3 3
6 5 7 7 13 4 10 17 14 19 11 16 9 8 9 9 10 9 9 7 9 8 7 7 6 8 7 3 1 1 4 7 9 10 12 14 10 11 10 6 6 5 4 3 3 3 3 3 2
9 12 15 16 10 5 7 10 11 16 12 11 5 6 6 8 7 7 7 8 9 8 8 6 6 2 4 3 3 2 4 1 0 4 10 12 11 13 9 7 5 4 5 5 5 2 4 3 1
14 17 18 14 9 4 8 13 8 8 7 8 9 7 7 5 5 7 10 8 7 9 10 8 8 4 1 3 2 2 1 1 2 3 3 9 10 8 12 8 6 6 4 5 5 4 1 2 3
18 12 6 7 6 5 3 9 5 5 6 4 6 6 6 10 10 6 12 11 10 10 9 9 9 8 4 2 2 2 2 1 0 3 5 6 12 9 8 11 9 7 6 6 5 5 7 4 3
6 7 6 7 3 6 4 7 4 5 7 8 8 8 9 10 8 10 14 9 14 11 8 9 9 9 5 5 2 3 4 3 1 2 3 4 7 10 10 7 8 7 7 6 5 4 5 4 5
9 9 4 1 2 1 1 1 6 6 13 11 11 10 11 12 18 15 13 16 6 9 9 8 8 8 6 5 4 3 3 3 1 2 4 3 5 6 7 9 9 9 9 7 6 6 6 5 5
8 6 0 2 3 3 2 4 15 7 6 6 13 17 14 9 10 9 11 9 7 7 8 8 9 5 6 5 3 4 4 4 3 2 3 3 2 3 5 7 8 8 5 9 9 10 10 11 9
9 6 5 7 3 12 5 2 15 5 12 16 21 24 17 10 13 14 18 16 12 10 9 8 8 6 6 6 4 4 5 5 5 4 3 3 3 3 6 6 6 7 10 7 7 9 10 10 10
4 8 4 4 3 10 3 8 15 6 8 14 14 12 8 8 12 15 16 15 14 12 10 8 8 7 7 7 7 7 6 4 4 4 3 4 3 4 6 7 8 5 3 6 10 7 8 6 8
0 6 13 6 13 5 5 8 13 18 10 5 13 14 5 6 10 14 12 12 11 11 11 11 9 8 9 10 7 7 7 7 7 8 5 5 6 5 6 7 8 7 9 7 7 7 10 11 12
4 12 2 2 6 5 5 6 9 5 6 8 8 12 15 12 4 4 6 8 8 10 9 10 12 13 10 9 8 7 7 7 7 5 7 7 6 6 7 6 8 7 9 10 11 10 11 12 8
1 2 4 5 2 3 3 6 3 4 6 7 4 6 10 10 11 10 9 6 7 8 9 11 9 9 8 7 7 7 7 8 7 6 7 7 7 7 7 8 7 8 9 10 10 11 10 9 10
4 4 1 1 3 2 2 7 4 4 2 3 7 4 6 6 4 4 4 7 7 7 9 10 8 8 9 8 7 7 6 7 7 7 9 8 8 7 7 7 6 6 7 6 8 9 10 12 15
Wind_Direction
330 307 287 24 49 64 250 249 54 315 337 356 348 99 155 95 145 199 31 155 131 142 151 145 153 146 140 136 134 129 127 125 122 119 118 118 115 115 116 120 125 129 132 133 132 129 126 122 114
321 317 36 69 98 127 260 309 304 256 278 1 170 69 55 81 46 107 94 144 140 143 153 145 153 152 147 143 139 139 138 135 132 131 130 128 127 129 130 133 137 139 141 139 138 135 131 124 118
292 191 83 122 176 208 200 112 331 291 305 353 46 75 58 338 87 156 129 139 137 144 152 152 153 156 153 149 143 143 142 139 140 140 137 135 137 139 141 146 148 148 142 138 136 134 133 128 128
332 6 22 107 239 264 231 325 312 308 316 23 309 35 32 313 74 152 143 142 141 150 158 152 152 158 157 153 149 145 146 144 144 143 143 143 145 146 149 153 153 150 146 146 146 145 144 135 128
38 63 310 201 263 266 268 246 274 274 259 302 54 61 86 334 68 135 151 155 150 152 160 152 152 158 159 158 153 148 147 148 148 147 148 149 149 154 155 153 157 153 149 149 151 150 149 138 144
13 96 128 221 256 275 286 312 244 260 260 253 102 82 319 303 110 175 161 165 160 153 158 157 154 156 160 159 155 149 146 148 148 148 148 153 153 154 155 155 157 153 154 162 165 160 164 162 228
153 116 209 212 258 281 276 22 234 255 263 268 142 134 237 255 149 129 171 163 162 157 153 155 155 155 157 159 157 153 148 145 146 147 149 152 155 154 155 157 156 167 167 177 179 172 178 191 221
154 135 227 208 237 266 277 334 288 236 228 300 47 150 184 234 177 111 124 164 161 147 154 158 153 154 163 160 158 161 153 149 149 152 154 157 159 155 159 168 178 183 185 197 199 195 205 211 228
149 191 233 225 224 253 290 298 292 262 315 310 178 143 180 189 169 80 73 130 122 122 123 155 157 156 166 164 166 164 161 157 157 157 160 160 159 161 171 183 190 196 199 210 207 213 225 223 239
159 200 235 221 236 247 268 237 296 327 302 268 16 34 59 134 128 88 113 133 146 142 139 145 165 164 158 170 170 167 166 165 163 164 163 161 164 170 182 192 200 203 209 214 217 215 234 237 228
209 238 239 257 250 252 262 277 258 282 278 255 260 163 108 91 50 88 97 148 163 155 157 162 159 166 171 161 166 173 172 166 174 170 166 167 168 188 191 193 205 198 215 214 219 219 224 237 225
240 255 232 253 249 258 261 273 266 217 246 241 204 197 156 131 96 98 121 147 154 166 167 162 162 168 181 165 165 173 170 166 169 193 177 168 175 187 197 202 204 208 205 208 214 212 227 234 235
189 240 242 240 248 250 256 263 259 249 240 247 251 156 160 165 154 201 135 154 177 164 173 171 164 173 176 177 170 169 175 177 173 170 195 177 186 192 188 200 192 210 198 198 206 219 238 234 227
262 267 258 254 250 255 260 268 221 236 199 226 215 228 188 180 180 179 173 198 177 185 180 174 172 169 168 185 190 176 175 178 178 178 191 199 192 192 195 191 208 205 188 204 198 206 228 244 231
295 307 313 255 235 232 229 278 252 169 203 193 240 272 271 219 188 183 200 179 190 198 157 179 179 167 169 176 184 186 178 173 180 187 182 189 192 199 191 197 207 201 190 204 205 231 228 245 242
340 336 314 288 299 266 159 262 268 244 211 236 205 228 215 234 223 221 206 186 191 163 161 145 172 186 178 179 179 181 178 175 178 183 185 193 194 197 213 211 213 197 187 196 199 221 236 243 224
352 259 289 303 243 257 174 273 260 259 227 237 222 218 240 224 239 232 204 197 167 161 150 140 137 159 195 190 182 181 181 184 185 180 183 192 196 198 192 227 201 205 194 198 200 224 208 243 255
251 277 268 260 282 241 270 269 275 264 224 242 227 230 225 228 217 201 181 170 134 142 140 138 137 140 168 171 193 329 173 181 188 191 182 180 195 200 195 205 205 206 182 209 226 227 231 237 254
241 256 264 274 274 243 243 273 278 278 215 236 231 226 232 171 204 166 136 122 123 129 124 121 118 111 130 133 145 173 210 182 303 195 190 180 185 183 195 215 200 183 199 185 214 193 222 274 162
248 251 263 273 251 271 287 287 282 283 221 185 196 230 222 267 220 163 143 149 161 153 139 133 134 131 99 125 141 154 168 210 172 162 204 153 172 193 193 195 204 183 219 178 213 185 196 241 195
254 241 234 245 280 287 292 288 293 303 298 239 232 223 222 211 211 214 170 170 156 159 159 144 144 138 131 149 119 53 38 41 87 237 203 222 154 181 199 204 205 171 198 217 182 177 198 226 240
237 236 256 283 356 257 108 273 294 263 288 294 278 281 243 229 212 187 189 179 174 177 150 139 140 137 135 134 158 203 180 184 202 257 268 201 192 181 165 215 218 174 208 212 196 185 220 185 217
266 264 238 157 234 345 213 163 265 313 282 270 281 265 258 235 221 190 195 181 175 145 149 137 132 132 133 135 159 175 201 234 212 279 314 302 290 206 157 187 214 210 188 198 182 193 207 213 219
304 268 343 78 119 286 162 174 285 244 249 277 269 266 256 243 210 182 159 132 140 140 142 146 144 144 137 153 171 174 197 258 241 223 233 250 248 313 305 205 205 186 194 187 205 209 204 223 228
44 40 299 273 334 254 94 338 243 299 290 278 284 268 246 219 171 155 152 158 159 163 160 146 146 161 171 160 173 205 219 214 233 213 187 228 264 254 254 279 226 206 184 199 206 224 237 232 220
289 162 154 262 222 277 158 231 257 227 295 293 291 270 157 142 140 142 149 154 162 163 157 155 166 162 175 179 201 205 202 210 228 237 250 238 247 234 239 234 243 260 222 187 197 189 222 234 245
242 224 214 211 237 277 244 291 308 274 222 33 349 8 65 138 160 162 159 157 158 159 167 170 169 186 187 192 185 199 204 202 208 215 208 218 228 237 242 240 241 245 245 197 185 209 220 229 235
103 312 23 97 187 214 262 251 247 322 295 85 18 2 28 12 11 163 159 168 179 173 171 167 173 182 191 191 193 200 210 216 225 230 232 225 233 230 231 216 228 226 221 223 210 223 230 233 249
2 322 339 116 166 200 277 255 227 192 79 55 57 329 42 25 17 13 349 312 208 176 168 181 185 192 204 202 210 205 216 217 223 221 232 231 233 231 227 221 215 217 217 211 209 219 232 236 244
120 133 353 195 212 248 288 273 354 124 239 109 127 348 29 0 26 351 1 3 348 284 185 191 191 192 207 204 203 219 233 238 232 243 242 226 231 240 239 239 229 232 245 236 232 236 236 236 245